Regional Weather Roundup
Issued by NWS

Home | Current Version | Previous Version | Text Only | Print | Product List | Glossary Off
Versions: 1 2 3 4 5 6 7 8 9 10 11 12 13 14 15 16 17 18 19 20 21 22 23 24 25 26 27 28 29 30 31 32 33 34 35 36 37 38 39 40 41 42 43 44 45 46 47 48 49 50

000
ASUS43 KDMX 271607
RWRIA

WEATHER ROUNDUP FOR IOWA
NATIONAL WEATHER SERVICE DES MOINES IA
1000 AM CST THU NOV 27 2014

NOTE: "FAIR" INDICATES FEW OR NO CLOUDS BELOW 12,000 FEET WITH NO
SIGNIFICANT WEATHER AND/OR OBSTRUCTIONS TO VISIBILITY.

* - THESE STATIONS ARE NOT NWS STATIONS...THUS NOT UNDER NWS
QUALITY CONTROL.  THEY ALSO DO NOT REPORT WEATHER SUCH
AS PRECIPITATION OR FOG.

IAZ001>003-012>014-020>022-031>034-043>046-271700-
   NORTHWEST IOWA

CITY           SKY/WX    TMP DP  RH WIND       PRES   REMARKS
CARROLL *      SUNNY      1  -8  66 NW3       30.54R
CHEROKEE *     SUNNY      1  -8  66 CALM      30.53R
DENISON *      SUNNY      7  -9  47 CALM      30.53R
LE MARS *      SUNNY      5  -4  66 CALM      30.54F
ORANGE CITY *  SUNNY      3  -8  60 CALM      30.49S
SHELDON *      SUNNY      0  -8  71 CALM      30.48S
SIOUX CITY     CLOUDY     9  -7  48 E5        30.55S WCI   1
SPENCER        SUNNY     -1  -7  75 NW3       30.50S
STORM LAKE *   SUNNY      0  -8  71 N6        30.50R WCI -12
$$

IAZ055>058-069>071-079>083-090>094-271700-
   SOUTHWEST IOWA

CITY           SKY/WX    TMP DP  RH WIND       PRES   REMARKS
ATLANTIC *     PTSUNNY    9  -4  56 N3        30.55S
AUDUBON *      SUNNY      5  -8  56 CALM      30.54R
CLARINDA *     CLOUDY    16   7  67 NW3       30.57S
COUNCIL BLFS * CLOUDY    14  -2  48 CALM      30.52S
CRESTON *      SUNNY      9   0  66 NW7       30.53R WCI  -3
HARLAN  *      CLOUDY     9  -6  52 CALM      30.58R
LAMONI         SUNNY     16   7  67 NW3       30.52R
RED OAK *      CLOUDY    14   3  62 CALM      30.57R
SHENANDOAH *   CLOUDY    18   7  62 VRB5      30.57S WCI  11
$$

IAZ047>049-059>061-072>074-084-271700-
   CENTRAL IOWA

CITY           SKY/WX    TMP DP  RH WIND       PRES   REMARKS
AMES           SUNNY      0  -7  72 N9        30.54R WCI -15
ANKENY *       SUNNY      1  -6  71 N8        30.55R WCI -12
CHARITON *     SUNNY     10   1  67 NW7       30.52R WCI   0
DES MOINES     MOSUNNY    7  -3  64 W8        30.55R WCI  -6
GRINNELL*      SUNNY      3  -2  78 NW10      30.51R WCI -12
KNOXVILLE *    SUNNY      7  -4  61 NW9       30.52R WCI  -7
MARSHALLTOWN   SUNNY      2  -5  72 NW8       30.51R WCI -12
PELLA *        SUNNY      7  -2  66 NW8       30.55R WCI  -6
PERRY *          N/A      1  -4  78 NW6       30.55R WCI -10
$$

IAZ004>006-015-016-023>025-035-036-271700-
   NORTH CENTRAL IOWA

CITY           SKY/WX    TMP DP  RH WIND       PRES   REMARKS
ALGONA *       SUNNY     -6 -11  77 N8        30.51F WCI -21
CLARION *      PTSUNNY   -8 -13  77 N10       30.51S WCI -26
ESTHERVILLE    SUNNY     -6 -11  79 NW8       30.50S WCI -21
FORT DODGE *   SUNNY     -2  -9  71 NW3       30.53R
MASON CITY     SUNNY     -4  -9  79 NW10      30.51R WCI -21
FOREST CITY *  SUNNY     -2  -8  78 NW6       30.50S WCI -14
IOWA FALLS *     N/A      1  -6  71 NW9       30.51R WCI -14
$$

IAZ007>011-017>019-026>030-037>042-050>054-066-271700-
   NORTHEAST IOWA

CITY           SKY/WX    TMP DP  RH WIND       PRES   REMARKS
CEDAR RAPIDS   SUNNY     11   5  77 NW13      30.47R WCI  -4
CHARLES CITY * SUNNY      0  -8  71 NW10      30.49R WCI -17
CLINTON *      CLOUDY    19  14  79 W16       30.43S WCI   5
DECORAH *      SUNNY      5  -2  72 NW10G16   30.44R WCI -10
DUBUQUE        SUNNY     17  11  77 NW14      30.40R WCI   3
MONTICELLO *   MOSUNNY   16   9  73 NW12      30.44R WCI   3
OELWEIN *      SUNNY      7  -2  66 N12       30.47R WCI  -9
WATERLOO       SUNNY      3  -4  72 NW14      30.50R WCI -15
$$

IAZ064-065-067-068-078-271700-
   EAST CENTRAL IOWA

CITY           SKY/WX    TMP DP  RH WIND       PRES   REMARKS
DAVENPORT      MOSUNNY   18  12  77 W20       30.43R WCI   2
IOWA CITY      SUNNY     13   6  74 NW14      30.50R WCI  -2
MT. PLEASANT * SUNNY     14   7  73 NW8       30.50R WCI   3
MUSCATINE *    PTSUNNY   18  10  73 W17       30.49R WCI   2
QUAD CITIES    LGT SNOW  21  15  78 NW20      30.44R WCI   6
$$

IAZ062-063-075>077-085>089-095>099-271700-
   SOUTHEAST IOWA

CITY           SKY/WX    TMP DP  RH WIND       PRES   REMARKS
BURLINGTON     SUNNY     19  13  77 NW10      30.47R WCI   7
FAIRFIELD *    SUNNY     10   1  67 NW14      30.51R WCI  -5
FORT MADISON * SUNNY     19  14  79 NW14      30.48S WCI   6
KEOKUK *       CLOUDY    21  16  79 NW13G21   30.49R WCI   9
OSKALOOSA *      N/A      7   0  72 NW14      30.52R WCI -10
CENTERVILLE *  MOSUNNY   16  10  79 W7        30.52R WCI   6
OTTUMWA        SUNNY     10   1  67 NW13      30.52R WCI  -5
WASHINGTON *   SUNNY     10   7  85 NW13      30.50R WCI  -5
$$

ABBREVIATIONS USED IN REMARKS
   TC - TEMPERATURES IN CELSIUS
  WCI - WIND CHILL INDEX
   HX - HEAT INDEX
  VSB - VISIBILITY
$$



USA.gov is the U.S. government's official web portal to all federal, state and local government web resources and services.